Date,TemperatureHighF,TemperatureAvgF,TemperatureLowF,DewpointHighF,DewpointAvgF,DewpointLowF,HumidityHigh,HumidityAvg,HumidityLow,PressureMaxIn,PressureMinIn,WindSpeedMaxMPH,WindSpeedAvgMPH,GustSpeedMaxMPH,PrecipitationSumIn
2013-9-1,89.4,78.6,71.8,79.6,74.2,70.8,98,87,64,29.80,29.72,0,0,1,0.02
2013-9-2,90.6,78.1,69.6,75.6,72.3,68.0,97,84,55,29.75,29.67,7,0,8,0.08
2013-9-3,83.3,73.2,64.7,71.4,63.9,56.2,97,75,47,29.91,29.67,9,0,12,0.01
2013-9-4,83.3,69.4,59.3,63.3,57.7,55.3,91,69,42,30.03,29.90,10,0,11,0.00
2013-9-5,81.2,69.5,58.6,66.1,57.4,49.6,86,67,40,30.12,29.96,11,0,11,0.00
2013-9-6,74.3,61.0,51.5,51.9,46.4,38.8,82,62,30,30.24,30.12,6,0,7,0.00
2013-9-7,81.6,63.9,49.2,62.4,54.5,45.5,96,74,41,30.12,29.89,6,0,7,0.00
2013-9-8,82.7,70.8,57.9,69.6,62.1,51.6,91,75,57,30.04,29.84,8,0,10,0.00
2013-9-9,76.8,62.6,49.9,65.4,56.4,46.9,95,81,66,30.19,30.05,4,0,5,0.00
2013-9-10,92.8,77.6,65.6,77.7,71.9,63.8,96,84,58,30.14,30.02,8,0,9,0.00
2013-9-11,94.6,80.9,72.7,80.5,74.3,71.2,97,82,61,30.09,29.95,6,0,6,0.00
2013-9-12,87.0,74.0,67.1,79.1,71.3,66.2,98,92,73,29.95,29.68,13,0,14,0.37
2013-9-13,75.6,67.3,59.2,67.7,59.1,50.4,98,77,50,29.89,29.64,10,1,13,0.00
2013-9-14,67.0,57.2,48.7,52.9,48.9,46.0,91,75,54,30.14,29.89,9,0,10,0.00
2013-9-15,75.6,58.6,44.3,58.8,52.0,43.1,98,81,49,30.21,30.05,5,0,5,0.00
2013-9-16,71.3,62.7,56.2,62.1,57.0,51.6,97,83,58,30.23,30.01,8,0,9,0.16
2013-9-17,67.8,54.4,43.4,51.6,45.1,40.5,91,73,45,30.42,30.23,4,0,6,0.00
2013-9-18,72.0,58.6,46.1,54.1,48.1,44.3,96,71,46,30.33,30.17,7,0,7,0.00
2013-9-19,78.0,61.0,46.8,61.2,53.8,45.7,98,80,48,30.18,30.05,5,0,6,0.00
2013-9-20,78.9,65.6,54.8,65.3,59.2,53.6,98,81,58,30.06,29.93,6,0,6,0.00
2013-9-21,77.0,64.8,58.0,66.5,61.1,55.6,97,89,65,29.96,29.65,7,0,13,0.73
2013-9-22,67.7,60.4,52.9,61.2,54.1,46.8,98,81,56,29.92,29.67,8,0,9,0.01
2013-9-23,66.0,55.3,48.0,49.8,45.9,42.1,86,71,52,30.06,29.92,9,1,10,0.00
2013-9-24,72.3,53.9,44.1,52.7,46.4,41.4,93,78,45,30.09,29.92,9,1,10,0.00
2013-9-25,74.9,65.2,52.8,53.9,50.7,46.8,89,62,39,29.95,29.86,7,0,8,0.00
2013-9-26,75.7,59.8,48.6,58.8,53.5,47.5,98,82,46,30.05,29.91,5,0,5,0.00
2013-9-27,73.4,62.6,55.9,60.3,56.3,52.7,96,81,51,30.22,30.05,4,0,5,0.00
2013-9-28,73.2,60.9,54.1,57.9,54.3,50.7,96,80,53,30.29,30.20,3,0,4,0.00
2013-9-29,71.1,59.0,49.6,58.9,53.4,48.2,98,83,58,30.20,30.04,3,0,3,0.00
2013-9-30,74.8,60.3,49.8,59.6,53.5,48.7,98,81,46,30.07,29.96,5,0,6,0.00